Snowfall_Accumulation
0.2 1.7 5.6 1.9 0.9 1.6 2.3 2.6 1.9 0.9 0.2 0.5 1.1 1.1 0.0 0.0 0.0 0.0 0.0 0.0 0.0 0.0 0.0 0.0 0.0 0.0 0.0 0.0 0.0 0.0 0.0 0.0 0.0 0.0 0.0 0.0 0.0 0.0 0.0 0.0 0.0 0.0 0.0 0.0
2.5 4.3 0.9 0.3 0.6 1.8 2.8 3.5 2.2 1.0 0.1 1.0 2.1 1.2 0.4 0.0 0.0 0.0 0.0 0.0 0.0 0.0 0.0 0.0 0.0 0.0 0.0 0.0 0.0 0.0 0.0 0.0 0.0 0.0 0.0 0.0 0.0 0.0 0.0 0.0 0.0 0.0 0.0 0.0
5.4 2.2 0.2 0.8 1.5 2.8 2.9 3.2 1.9 2.2 1.2 0.3 1.5 3.0 1.0 0.2 0.0 0.0 0.0 0.0 0.0 0.0 0.0 0.0 0.0 0.0 0.0 0.0 0.0 0.0 0.0 0.0 0.0 0.0 0.0 0.0 0.0 0.0 0.0 0.0 0.0 0.0 0.0 0.0
2.1 0.6 0.7 1.7 2.2 2.4 3.9 0.7 0.6 1.8 2.9 4.1 3.2 6.8 2.0 0.7 0.6 0.0 0.1 0.3 0.0 0.0 0.0 0.0 0.0 0.0 0.0 0.0 0.0 0.0 0.0 0.0 0.0 0.0 0.0 0.0 0.0 0.0 0.0 0.0 0.0 0.0 0.0 0.0
3.7 0.7 0.9 3.2 1.8 1.2 1.5 0.1 0.5 1.4 4.2 5.5 2.5 5.6 3.5 0.7 1.4 0.9 0.3 0.6 0.5 0.0 0.0 0.0 0.0 0.0 0.0 0.0 0.0 0.0 0.0 0.0 0.0 0.0 0.0 0.0 0.0 0.0 0.0 0.0 0.0 0.0 0.0 0.0
1.7 0.5 0.8 1.1 0.3 0.4 0.5 0.5 1.0 2.4 6.8 12.0 4.2 5.0 4.2 3.2 2.6 1.2 0.3 0.5 0.4 0.1 0.0 0.0 0.0 0.0 0.0 0.0 0.0 0.0 0.0 0.0 0.0 0.0 0.0 0.0 0.0 0.0 0.0 0.0 0.0 0.0 0.0 0.0
7.7 3.1 1.0 0.6 2.6 2.1 2.4 12.2 20.3 20.1 17.7 9.7 1.8 3.3 4.3 1.9 0.4 0.3 0.3 0.5 0.3 0.2 0.2 0.1 0.0 0.4 0.1 0.1 0.2 0.2 0.2 0.3 0.1 0.0 0.0 0.0 0.0 0.0 0.0 0.0 0.0 0.0 0.0 0.0
11.1 11.7 1.8 0.6 1.6 3.8 3.7 8.2 15.0 13.6 8.9 4.4 2.2 3.8 3.7 0.3 0.2 0.0 0.2 0.4 0.3 0.5 0.5 0.4 0.3 0.5 0.1 0.1 0.0 0.1 0.1 0.3 0.3 0.2 0.1 0.0 0.0 0.0 0.0 0.0 0.0 0.0 0.0 0.0
8.9 8.8 1.0 0.4 0.5 1.5 6.4 7.9 4.6 10.6 7.9 5.4 3.6 2.7 2.1 0.2 0.3 0.4 0.3 0.3 0.5 0.4 0.5 0.6 0.8 0.8 0.4 0.4 0.0 0.0 0.1 0.2 0.2 0.2 0.0 0.0 0.0 0.0 0.0 0.0 0.0 0.0 0.0 0.0
5.5 9.0 3.2 0.5 1.0 0.9 1.6 2.3 7.5 13.5 11.4 7.8 4.0 3.2 4.2 2.9 1.8 0.9 0.4 0.5 0.3 0.3 0.4 0.7 0.7 0.9 0.8 0.2 0.5 0.1 0.1 0.1 0.0 0.2 0.2 0.2 0.2 0.0 0.0 0.0 0.0 0.0 0.0 0.0
3.7 8.6 7.9 2.3 4.9 5.2 3.5 5.2 8.6 10.5 9.0 9.2 6.0 4.2 3.1 2.7 1.6 1.3 0.5 0.4 0.7 0.7 0.5 0.7 0.8 0.5 0.4 0.4 0.1 0.1 0.0 0.0 0.1 0.0 0.1 0.2 0.2 0.1 0.0 0.0 0.0 0.0 0.0 0.0
2.8 6.1 10.0 4.3 0.9 0.7 1.6 3.2 6.4 12.0 9.2 7.0 6.6 4.3 1.1 0.8 0.7 0.8 0.8 0.7 0.7 0.5 0.4 0.4 0.5 0.6 0.4 0.2 0.1 0.1 0.1 0.2 0.1 0.0 0.0 0.0 0.2 0.0 0.1 0.0 0.0 0.0 0.0 0.0
4.0 7.5 10.8 5.2 2.6 1.4 2.8 2.3 3.4 6.5 10.5 8.3 7.6 4.9 1.1 0.9 0.7 0.8 0.8 0.8 0.5 0.5 0.5 0.5 0.4 0.4 0.3 0.2 0.2 0.1 0.1 0.2 0.1 0.0 0.0 0.0 0.1 0.2 0.2 0.1 0.0 0.0 0.0 0.0
3.2 6.9 7.7 7.2 5.1 4.8 5.0 3.8 3.4 8.7 13.2 7.5 5.0 4.4 2.6 1.6 1.3 1.2 0.9 0.8 0.6 0.5 0.5 0.4 0.4 0.4 0.3 0.4 0.2 0.1 0.1 0.1 0.2 0.1 0.0 0.0 0.0 0.0 0.0 0.0 0.0 0.0 0.0 0.0
2.8 5.7 4.1 2.6 1.6 2.4 3.1 3.2 3.4 6.4 6.3 7.1 4.1 3.5 2.5 1.8 1.4 1.0 0.9 0.7 0.6 0.5 0.4 0.4 0.4 0.4 0.3 0.3 0.2 0.1 0.1 0.1 0.2 0.1 0.1 0.1 0.1 0.1 0.0 0.0 0.0 0.0 0.0 0.0
1.9 3.9 3.1 3.5 1.4 1.7 3.1 2.4 2.5 2.9 3.3 4.3 3.4 3.2 1.7 1.4 0.9 0.9 0.8 0.6 0.5 0.5 0.4 0.4 0.4 0.4 0.2 0.3 0.3 0.3 0.2 0.1 0.1 0.2 0.2 0.2 0.1 0.1 0.0 0.0 0.0 0.0 0.0 0.0
2.2 3.0 6.2 4.5 2.1 3.8 5.4 3.2 2.9 3.3 3.1 3.4 4.7 3.2 1.6 1.6 1.4 1.4 0.7 0.6 0.5 0.5 0.4 0.3 0.2 0.2 0.2 0.2 0.3 0.3 0.2 0.3 0.1 0.2 0.3 0.2 0.2 0.2 0.1 0.1 0.1 0.2 0.2 0.2
2.3 3.2 6.7 5.6 3.7 5.5 3.6 2.0 2.2 2.7 3.0 2.5 2.5 2.1 1.5 1.7 1.5 0.9 0.7 0.9 0.7 0.6 0.6 0.5 0.4 0.4 0.1 0.2 0.2 0.3 0.3 0.4 0.4 0.4 0.3 0.3 0.3 0.3 0.4 0.5 0.5 0.6 0.6 0.6
1.6 3.3 8.1 7.1 5.0 3.5 1.9 1.5 2.2 2.9 3.6 2.7 2.5 2.0 1.5 1.2 0.9 0.9 0.8 0.7 0.7 0.7 0.6 0.5 0.5 0.3 0.2 0.2 0.2 0.2 0.3 0.3 0.4 0.5 0.5 0.6 0.6 0.8 0.6 0.7 0.6 0.6 0.7 0.7
1.3 2.5 7.3 7.6 6.3 4.3 2.8 1.3 1.3 1.5 3.8 2.0 1.8 2.1 1.8 1.4 2.1 2.4 1.4 1.1 0.7 0.6 0.4 0.4 0.3 0.3 0.2 0.2 0.2 0.2 0.2 0.4 0.4 0.5 0.6 0.6 0.5 1.1 1.0 0.9 0.8 0.8 0.8 1.0
3.0 4.4 6.7 6.1 5.8 3.3 2.1 1.2 0.7 3.1 7.0 2.1 1.8 1.9 1.7 2.1 2.8 2.3 1.4 1.2 0.9 0.6 0.5 0.4 0.3 0.4 0.3 0.4 0.4 0.6 0.6 0.7 0.9 0.4 0.3 0.4 0.6 1.0 0.9 0.9 0.7 0.9 0.8 0.9
3.1 3.6 3.7 3.8 5.5 4.3 1.9 1.5 3.1 4.2 2.5 2.0 1.8 1.8 1.9 1.8 1.6 1.5 1.3 1.2 0.9 0.8 0.6 0.6 0.6 0.8 0.6 0.7 0.7 0.9 0.9 0.4 0.3 0.4 0.5 0.6 0.9 1.0 0.7 0.6 0.8 1.2 1.2 1.1
2.9 3.8 4.1 4.2 4.8 3.8 2.7 2.8 2.6 2.0 2.0 1.8 1.8 1.8 1.6 1.6 1.5 1.3 1.2 1.1 0.9 0.9 0.7 0.5 0.6 0.6 0.5 0.5 0.4 0.9 0.9 0.7 0.5 0.7 0.6 0.7 0.7 0.7 0.8 0.6 0.9 1.0 0.9 1.0
2.2 1.6 2.4 3.1 2.8 2.5 2.1 1.8 1.6 1.5 1.7 1.5 1.4 1.3 1.2 1.3 1.1 1.0 1.0 0.9 0.8 0.7 0.6 0.6 0.6 0.6 0.6 0.6 0.7 0.9 0.8 0.7 0.8 0.9 1.0 0.8 0.6 0.6 0.7 0.7 0.7 0.9 1.0 1.0
1.8 1.5 1.9 2.7 2.1 1.7 1.7 1.6 1.6 1.3 1.0 0.8 0.7 0.7 0.8 0.9 0.8 0.7 0.7 0.7 0.6 0.6 0.5 0.5 0.7 0.7 0.8 0.7 0.9 0.8 0.8 0.9 1.0 1.0 1.0 0.8 0.7 0.6 0.7 0.9 0.6 0.8 0.8 1.0
2.3 2.4 2.9 3.3 2.2 2.3 2.2 1.3 0.9 0.7 0.7 0.6 0.5 0.5 0.4 0.6 0.6 0.5 0.5 0.5 0.5 0.6 0.4 0.5 0.6 0.7 0.9 0.9 0.9 1.1 0.8 0.8 1.2 1.1 0.8 0.9 0.7 0.6 0.7 0.9 0.9 0.3 0.6 0.6